Time,TemperatureF,DewpointF,PressureIn,WindDirection,WindDirectionDegrees,WindSpeedMPH,WindSpeedGustMPH,Humidity,HourlyPrecipIn,Conditions,Clouds,dailyrainin,SolarRadiationWatts/m^2,SoftwareType,DateUTC
2013-09-09 00:44:00,66.0,62.0,-100.00,NE,50,3.0,5.0,88,-99.99,,,0.00,0.000000,,2013-09-09 04:44:00,
2013-09-09 00:54:00,66.0,62.0,-100.00,NE,50,3.0,5.0,88,-99.99,,,0.00,0.000000,,2013-09-09 04:54:00,
2013-09-09 01:03:00,66.0,62.0,-100.00,NE,50,3.0,5.0,88,-99.99,,,0.00,0.000000,,2013-09-09 05:03:00,
2013-09-09 01:43:00,66.0,61.0,-100.00,East,84,2.0,5.0,84,0.00,,,0.00,0.000000,,2013-09-09 05:43:00,
2013-09-09 01:53:00,66.0,61.0,-100.00,East,84,2.0,5.0,84,0.00,,,0.00,0.000000,,2013-09-09 05:53:00,
2013-09-09 02:02:00,66.0,61.0,-100.00,East,84,2.0,5.0,84,0.00,,,0.00,0.000000,,2013-09-09 06:02:00,
2013-09-09 02:42:00,65.0,60.0,-100.00,East,97,4.0,5.0,84,0.00,,,0.00,0.000000,,2013-09-09 06:42:00,
2013-09-09 02:52:00,65.0,60.0,-100.00,East,97,4.0,5.0,84,0.00,,,0.00,0.000000,,2013-09-09 06:52:00,
2013-09-09 03:02:00,65.0,60.0,-100.00,East,97,4.0,5.0,84,0.00,,,0.00,0.000000,,2013-09-09 07:02:00,
2013-09-09 03:43:00,65.0,63.0,-100.00,SE,135,2.0,5.0,92,0.00,,,0.00,0.000000,,2013-09-09 07:43:00,
2013-09-09 03:52:00,65.0,63.0,-100.00,SE,135,2.0,5.0,92,0.00,,,0.00,0.000000,,2013-09-09 07:52:00,
2013-09-09 04:02:00,65.0,63.0,-100.00,SE,135,2.0,5.0,92,0.00,,,0.00,0.000000,,2013-09-09 08:02:00,
2013-09-09 04:43:00,66.0,62.0,-100.00,North,7,2.0,5.0,88,0.00,,,0.00,0.000000,,2013-09-09 08:43:00,
2013-09-09 04:52:00,66.0,62.0,-100.00,North,7,2.0,5.0,88,0.00,,,0.00,0.000000,,2013-09-09 08:52:00,
2013-09-09 05:02:00,66.0,62.0,-100.00,North,7,2.0,5.0,88,0.00,,,0.00,0.000000,,2013-09-09 09:02:00,
2013-09-09 05:43:00,65.0,61.0,-100.00,ENE,61,3.0,5.0,86,0.00,,,0.00,0.000000,,2013-09-09 09:43:00,
2013-09-09 05:54:00,65.0,61.0,-100.00,ENE,61,3.0,5.0,86,0.00,,,0.00,0.000000,,2013-09-09 09:54:00,
2013-09-09 06:03:00,65.0,61.0,-100.00,ENE,61,3.0,5.0,86,0.00,,,0.00,0.000000,,2013-09-09 10:03:00,
2013-09-09 06:43:00,64.0,61.0,-100.00,SSE,167,2.0,5.0,89,0.00,,,0.00,0.000000,,2013-09-09 10:43:00,
2013-09-09 06:53:00,64.0,61.0,-100.00,SSE,167,2.0,5.0,89,0.00,,,0.00,0.000000,,2013-09-09 10:53:00,
2013-09-09 07:02:00,64.0,61.0,-100.00,SSE,167,2.0,5.0,89,0.00,,,0.00,0.000000,,2013-09-09 11:02:00,
2013-09-09 07:42:00,65.0,61.0,-100.00,ESE,115,1.0,5.0,88,0.00,,,0.00,0.000000,,2013-09-09 11:42:00,
2013-09-09 07:52:00,65.0,61.0,-100.00,ESE,115,1.0,5.0,88,0.00,,,0.00,0.000000,,2013-09-09 11:52:00,
2013-09-09 08:02:00,65.0,61.0,-100.00,ESE,115,1.0,5.0,88,0.00,,,0.00,0.000000,,2013-09-09 12:02:00,
2013-09-09 09:52:00,71.0,65.0,-100.00,NE,51,2.0,6.0,81,-99.99,,,0.00,203.000000,,2013-09-09 13:52:00,
2013-09-09 10:02:00,71.0,65.0,-100.00,NE,51,2.0,6.0,81,-99.99,,,0.00,203.000000,,2013-09-09 14:02:00,
2013-09-09 11:43:00,76.0,65.0,-100.00,East,83,4.0,8.0,68,0.00,,,0.00,686.000000,,2013-09-09 15:43:00,
2013-09-09 11:53:00,76.0,65.0,-100.00,East,83,4.0,8.0,68,0.00,,,0.00,686.000000,,2013-09-09 15:53:00,
2013-09-09 12:04:00,76.0,65.0,-100.00,East,83,4.0,8.0,68,0.00,,,0.00,686.000000,,2013-09-09 16:04:00,
2013-09-09 12:44:00,74.0,61.0,-100.00,SE,140,4.0,9.0,65,0.00,,,0.00,641.000000,,2013-09-09 16:44:00,
2013-09-09 12:54:00,74.0,61.0,-100.00,SE,140,4.0,9.0,65,0.00,,,0.00,641.000000,,2013-09-09 16:54:00,
2013-09-09 13:03:00,74.0,61.0,-100.00,SE,140,4.0,9.0,65,0.00,,,0.00,641.000000,,2013-09-09 17:03:00,
2013-09-09 13:43:00,78.0,65.0,-100.00,SSE,157,5.0,11.0,64,0.00,,,0.00,987.000000,,2013-09-09 17:43:00,
2013-09-09 13:53:00,78.0,65.0,-100.00,SSE,157,5.0,11.0,64,0.00,,,0.00,987.000000,,2013-09-09 17:53:00,
2013-09-09 14:02:00,78.0,65.0,-100.00,SSE,157,5.0,11.0,64,0.00,,,0.00,987.000000,,2013-09-09 18:02:00,
2013-09-09 14:42:00,79.0,65.0,-100.00,SSE,166,5.0,11.0,63,0.00,,,0.00,1014.000000,,2013-09-09 18:42:00,
2013-09-09 14:52:00,79.0,65.0,-100.00,SSE,166,5.0,11.0,63,0.00,,,0.00,1014.000000,,2013-09-09 18:52:00,
2013-09-09 15:02:00,79.0,65.0,-100.00,SSE,166,5.0,11.0,63,0.00,,,0.00,1014.000000,,2013-09-09 19:02:00,
2013-09-09 15:43:00,78.0,65.0,-100.00,SSE,163,5.0,12.0,64,0.00,,,0.00,1032.000000,,2013-09-09 19:43:00,
2013-09-09 15:52:00,78.0,65.0,-100.00,SSE,163,5.0,12.0,64,0.00,,,0.00,1032.000000,,2013-09-09 19:52:00,
2013-09-09 16:03:00,78.0,65.0,-100.00,SSE,163,5.0,12.0,64,0.00,,,0.00,1032.000000,,2013-09-09 20:03:00,
2013-09-09 16:42:00,78.0,65.0,-100.00,SSE,148,5.0,12.0,64,0.00,,,0.00,943.000000,,2013-09-09 20:42:00,
2013-09-09 16:53:00,78.0,65.0,-100.00,SSE,148,5.0,12.0,64,0.00,,,0.00,943.000000,,2013-09-09 20:53:00,
2013-09-09 17:02:00,78.0,65.0,-100.00,SSE,148,5.0,12.0,64,0.00,,,0.00,943.000000,,2013-09-09 21:02:00,
2013-09-09 17:44:00,78.0,66.0,-100.00,South,177,4.0,9.0,66,0.00,,,0.00,680.000000,,2013-09-09 21:44:00,
2013-09-09 17:54:00,78.0,66.0,-100.00,South,177,4.0,9.0,66,0.00,,,0.00,680.000000,,2013-09-09 21:54:00,
2013-09-09 18:05:00,78.0,66.0,-100.00,South,177,4.0,9.0,66,0.00,,,0.00,680.000000,,2013-09-09 22:05:00,
2013-09-09 18:43:00,72.0,62.0,-100.00,SSE,154,3.0,11.0,72,0.00,,,0.00,311.000000,,2013-09-09 22:43:00,
2013-09-09 18:54:00,72.0,62.0,-100.00,SSE,154,3.0,11.0,72,0.00,,,0.00,311.000000,,2013-09-09 22:54:00,
2013-09-09 19:03:00,72.0,62.0,-100.00,SSE,154,3.0,11.0,72,0.00,,,0.00,311.000000,,2013-09-09 23:03:00,
2013-09-09 19:43:00,70.0,65.0,-100.00,SE,139,2.0,8.0,83,0.00,,,0.00,54.000000,,2013-09-09 23:43:00,
2013-09-09 19:52:00,70.0,65.0,-100.00,SE,139,2.0,8.0,83,0.00,,,0.00,54.000000,,2013-09-09 23:52:00,
2013-09-09 20:02:00,70.0,65.0,-100.00,SE,139,2.0,8.0,83,0.00,,,0.00,54.000000,,2013-09-10 00:02:00,
2013-09-09 20:42:00,68.0,63.0,-100.00,SE,134,3.0,7.0,85,0.00,,,0.00,14.000000,,2013-09-10 00:42:00,
2013-09-09 20:52:00,68.0,63.0,-100.00,SE,134,3.0,7.0,85,0.00,,,0.00,14.000000,,2013-09-10 00:52:00,
2013-09-09 21:01:00,68.0,63.0,-100.00,SE,134,3.0,7.0,85,0.00,,,0.00,14.000000,,2013-09-10 01:01:00,
2013-09-09 21:42:00,68.0,64.0,-100.00,SE,139,2.0,6.0,87,0.00,,,0.00,0.000000,,2013-09-10 01:42:00,
2013-09-09 21:53:00,68.0,64.0,-100.00,SE,139,2.0,6.0,87,0.00,,,0.00,0.000000,,2013-09-10 01:53:00,
2013-09-09 22:03:00,68.0,64.0,-100.00,SE,139,2.0,6.0,87,0.00,,,0.00,0.000000,,2013-09-10 02:03:00,
2013-09-09 22:42:00,68.0,64.0,-100.00,NNW,335,2.0,5.0,88,0.00,,,0.00,0.000000,,2013-09-10 02:42:00,
2013-09-09 22:52:00,68.0,64.0,-100.00,NNW,335,2.0,5.0,88,0.00,,,0.00,0.000000,,2013-09-10 02:52:00,
2013-09-09 23:02:00,68.0,64.0,-100.00,NNW,335,2.0,5.0,88,0.00,,,0.00,0.000000,,2013-09-10 03:02:00,
2013-09-09 23:44:00,67.0,63.0,-100.00,SSE,155,2.0,7.0,87,0.00,,,0.00,0.000000,,2013-09-10 03:44:00,
2013-09-09 23:55:00,67.0,63.0,-100.00,SSE,155,2.0,7.0,87,0.00,,,0.00,0.000000,,2013-09-10 03:55:00,